Location: R�serve Fauniques des Laurentides
(47.3100°N, 71.1900°W)
Time: 08:21:57
(UTC-04:00)

Amateur Radio Satellites - All Passes

Search period start: 03 July 2015 07:51
Search period end: 04 July 2015 07:51
Location: R�serve Fauniques des Laurentides, 47.3100°N, 71.1900°W

Satellite Date Start Highest point End Downlink Frequencies (MHz)
Time Altitude Azimuth
DANDE 03 Jul 07:55:02 08:01:43 42° 96° (E) 08:07:00 436.750
BEESAT 2 03 Jul 07:55:45 07:59:39 44° 121° (ESE) 08:03:38 435.950
M-CUBED/EXP-1 PRIME 03 Jul 07:58:49 08:02:05 69° 69° (ENE) 08:05:32 437.505
O/OREOS (USA 219) 03 Jul 08:15:49 08:20:18 88° 300° (WNW) 08:24:48 437.305
SEEDS 03 Jul 08:19:59 08:21:18 11° 86° (E) 08:22:51 437.485
PRISM 03 Jul 08:25:43 08:26:43 11° 274° (W) 08:27:29 437.425
RS-15 03 Jul 08:31:33 08:41:44 36° 16° (NNE) 08:52:25 29.354- 29.394
AAUSAT CUBESAT 2 03 Jul 08:35:06 08:36:17 11° 86° (E) 08:37:43 437.432
AO-7 03 Jul 08:41:07 08:43:28 11° 329° (NNW) 08:45:29 29.400- 29.500
GONETS M04 03 Jul 08:42:34 08:50:38 44° 88° (E) 08:58:48
GOMX 1 03 Jul 08:43:48 08:47:51 41° 97° (E) 08:51:48 467.674
ISS 03 Jul 08:44:03 08:46:44 24° 141° (SE) 08:49:27 145.825
CUSAT 1 03 Jul 08:44:51 08:51:17 64° 283° (WNW) 08:56:08 437.405
CUTE-I 03 Jul 08:45:05 08:49:14 22° 300° (WNW) 08:53:13 437.470
HO-68 03 Jul 08:46:36 08:53:03 36° 95° (E) 08:59:34 435.675
CINEMA 3 03 Jul 08:55:26 08:58:03 17° 90° (E) 09:00:50 145.822/145.860
COMPASS 1 03 Jul 08:58:09 09:01:30 23° 92° (E) 09:04:55 437.405
BRITE-PL 03 Jul 09:00:36 09:05:04 79° 283° (WNW) 09:09:15 437.365/2234.400
AUBIESAT-1 03 Jul 09:01:26 09:04:10 23° 260° (W) 09:06:58 437.475
CUTE 1.7 + AOD 2 03 Jul 09:02:51 09:06:52 38° 97° (E) 09:10:53 437.475
AIST 2 03 Jul 09:04:00 09:08:10 57° 123° (ESE) 09:12:23 435.215
CANX-2 03 Jul 09:05:54 09:10:02 45° 98° (E) 09:14:10 2200.000
VERMONT LUNAR 03 Jul 09:17:26 09:19:41 18° 167° (SSE) 09:21:57 437.305
Cubesat XI-IV 03 Jul 09:20:08 09:22:34 13° 306° (NW) 09:24:46 437.490
BEESAT 3 03 Jul 09:24:15 09:27:48 27° 320° (NW) 09:31:21 437.485
ANTELSAT 03 Jul 09:25:17 09:28:38 23° 65° (ENE) 09:32:03 437.575/2403.000
BEESAT 2 03 Jul 09:34:18 09:37:54 27° 320° (NW) 09:41:28 435.950
DOVE 4 03 Jul 09:35:05 09:39:17 90° 341° (NNW) 09:43:26 437.250
TIGRISAT 03 Jul 09:37:56 09:41:37 29° 67° (ENE) 09:45:19 435.000
DANDE 03 Jul 09:38:27 09:44:56 37° 288° (WNW) 09:49:58 436.750
QB50P1 03 Jul 09:46:09 09:48:52 17° 63° (ENE) 09:51:43 145.935-145.965
CUBEBUG 2 03 Jul 09:52:59 09:56:45 32° 96° (E) 10:00:36 437.445
SEEDS 03 Jul 09:53:27 09:57:43 78° 285° (WNW) 10:01:58 437.485
Cosmos 2499 03 Jul 09:56:57 10:02:12 24° 82° (E) 10:07:44 435.465 / 435.565
O/OREOS (USA 219) 03 Jul 09:57:56 10:00:28 14° 317° (NW) 10:02:53 437.305
NANOSAT C BR1 03 Jul 10:00:17 10:03:35 23° 65° (ENE) 10:06:57 145.865
ZACube-1 03 Jul 10:01:53 10:05:22 25° 94° (E) 10:08:57 437.345
DUCHIFAT 1 03 Jul 10:07:31 10:11:01 26° 66° (ENE) 10:14:33 145.980
AAUSAT CUBESAT 2 03 Jul 10:08:17 10:12:30 78° 285° (WNW) 10:16:43 437.432
POLYITAN 1 03 Jul 10:10:32 10:14:11 29° 67° (ENE) 10:17:52 437.675
UKube-1 03 Jul 10:12:52 10:14:05 11° 86° (E) 10:15:33 .
Oscar 11 03 Jul 10:13:35 10:17:52 55° 100° (E) 10:22:09 145.826/435.025
UNISAT 6 03 Jul 10:16:21 10:20:37 73° 74° (ENE) 10:24:53 437.425
ISS 03 Jul 10:19:41 10:22:55 68° 339° (NNW) 10:26:10 145.825
GOMX 1 03 Jul 10:22:33 10:25:47 21° 296° (WNW) 10:28:51 467.674
BUGSAT 1 03 Jul 10:30:43 10:34:24 30° 68° (ENE) 10:38:06 437.445
CINEMA 3 03 Jul 10:31:35 10:35:37 49° 288° (WNW) 10:39:41 145.822/145.860
HUMSAT D 03 Jul 10:32:44 10:36:06 24° 93° (E) 10:39:31 437.325/437.525
COMPASS 1 03 Jul 10:33:23 10:37:18 37° 290° (WNW) 10:41:12 437.405
DELFI C3 03 Jul 10:33:52 10:37:56 66° 101° (E) 10:41:59 145.870
HO-68 03 Jul 10:34:09 10:41:04 53° 295° (WNW) 10:47:56 435.675
FUNcube-1 03 Jul 10:38:16 10:42:25 59° 101° (E) 10:46:38 145.935
GONETS M04 03 Jul 10:39:03 10:47:31 48° 290° (WNW) 10:55:53
CUTE 1.7 + AOD 2 03 Jul 10:39:08 10:42:37 24° 294° (WNW) 10:46:01 437.475
QB50P2 03 Jul 10:39:51 10:44:01 57° 73° (ENE) 10:48:12 145.880/145.840
POPSAT HIP 1 03 Jul 10:40:58 10:45:08 57° 72° (ENE) 10:49:18 437.405
BRITE-PL 03 Jul 10:42:10 10:42:48 10° 304° (NW) 10:43:14 437.365/2234.400
CANX-2 03 Jul 10:42:28 10:45:42 21° 295° (WNW) 10:48:51 2200.000
AIST 2 03 Jul 10:43:30 10:47:04 24° 323° (NW) 10:50:35 435.215
RS-15 03 Jul 10:45:03 10:56:38 70° 46° (NE) 11:08:45 29.354- 29.394
UWE-3 03 Jul 10:46:54 10:51:06 86° 285° (WNW) 10:55:22 435.000/436.395/437.385
ESTCUBE 1 03 Jul 10:47:51 10:49:14 11° 85° (E) 10:50:52 437.505/2401.250
50 SAT 03 Jul 10:48:48 10:51:26 18° 91° (E) 10:54:11 437.505
PHONESAT 2.4 03 Jul 10:50:58 10:53:36 21° 167° (SSE) 10:56:16 2401.200-2431.200
VERMONT LUNAR 03 Jul 10:53:30 10:56:04 23° 183° (S) 10:58:40 437.305
ANTELSAT 03 Jul 11:01:13 11:05:15 39° 263° (W) 11:09:16 437.575/2403.000
VELOX 1 03 Jul 11:08:59 11:12:43 26° 94° (E) 11:16:28 145.980
TIGRISAT 03 Jul 11:14:32 11:18:21 30° 265° (W) 11:22:06 435.000
DOVE 4 03 Jul 11:15:20 11:16:27 11° 302° (WNW) 11:17:21 437.250
QB50P1 03 Jul 11:20:11 11:24:22 56° 259° (W) 11:28:33 145.935-145.965
DX 1 03 Jul 11:23:27 11:27:48 64° 102° (ESE) 11:32:07 434.975-435.025
CUBEBUG 2 03 Jul 11:29:50 11:33:23 26° 293° (WNW) 11:36:55 437.445
SEEDS 03 Jul 11:32:29 11:32:50 10° 302° (WNW) 11:32:58 437.485
NANOSAT C BR1 03 Jul 11:35:13 11:39:13 39° 262° (W) 11:43:13 145.865
ZACube-1 03 Jul 11:38:00 11:41:48 33° 291° (WNW) 11:45:36 437.345
DUCHIFAT 1 03 Jul 11:42:50 11:46:43 34° 264° (W) 11:50:34 145.980
POLYITAN 1 03 Jul 11:46:16 11:50:03 30° 265° (W) 11:53:48 437.675
UKube-1 03 Jul 11:46:31 11:50:53 81° 286° (WNW) 11:55:12 .
Cosmos 2499 03 Jul 11:47:43 11:54:43 67° 283° (WNW) 12:01:53 435.465 / 435.565
SPROUT 03 Jul 11:50:30 11:52:17 13° 87° (E) 11:54:15 437.525
Oscar 11 03 Jul 11:50:41 11:53:41 18° 297° (WNW) 11:56:34 145.826/435.025
AISAT 03 Jul 11:55:12 11:59:39 79° 102° (ESE) 12:04:03 437.250
UNISAT 6 03 Jul 11:56:09 11:58:00 12° 273° (W) 11:59:39 437.425
ISS 03 Jul 11:56:35 11:59:38 36° 359° (N) 12:02:42 145.825
BUGSAT 1 03 Jul 12:06:09 12:09:51 29° 265° (W) 12:13:31 437.445
HUMSAT D 03 Jul 12:08:09 12:11:56 35° 291° (WNW) 12:15:43 437.325/437.525
DELFI C3 03 Jul 12:10:19 12:12:34 14° 298° (WNW) 12:14:41 145.870
FUNcube-1 03 Jul 12:15:43 12:18:23 16° 297° (WNW) 12:20:56 145.935
YUBILEINY 03 Jul 12:17:25 12:21:30 14° 47° (NE) 12:26:05 435.215
CUBEBUG 1 03 Jul 12:17:28 12:21:52 75° 102° (ESE) 12:26:13 437.445
QB50P2 03 Jul 12:17:41 12:20:20 15° 271° (W) 12:22:49 145.880/145.840
POPSAT HIP 1 03 Jul 12:18:45 12:21:24 16° 271° (W) 12:23:55 437.405
ESTCUBE 1 03 Jul 12:22:15 12:26:51 86° 282° (WNW) 12:31:22 437.505/2401.250
50 SAT 03 Jul 12:22:36 12:26:18 42° 289° (WNW) 12:30:00 437.505
HO-68 03 Jul 12:24:02 12:27:22 14° 316° (NW) 12:30:24 435.675
UWE-3 03 Jul 12:25:56 12:27:03 11° 301° (WNW) 12:27:57 435.000/436.395/437.385
PHONESAT 2.4 03 Jul 12:28:09 12:31:05 26° 183° (S) 12:34:02 2401.200-2431.200
VERMONT LUNAR 03 Jul 12:30:43 12:32:25 14° 200° (SSW) 12:34:05 437.305
Gurwin Techsat 1B 03 Jul 12:32:46 12:35:29 15° 56° (NE) 12:38:24 435.225
Oscar 19 03 Jul 12:35:33 12:40:19 40° 67° (ENE) 12:45:07 437.125/150
TISAT 1 03 Jul 12:36:20 12:39:44 24° 93° (E) 12:43:13 437.305
GONETS M04 03 Jul 12:44:15 12:47:19 12° 317° (NW) 12:49:52
VELOX 1 03 Jul 12:45:17 12:49:21 35° 292° (WNW) 12:53:21 145.980
ITAMSAT 1 03 Jul 12:45:53 12:49:13 18° 58° (ENE) 12:52:43 435.822/435.867
RS-15 03 Jul 12:57:56 13:08:42 43° 249° (WSW) 13:19:38 29.354- 29.394
DX 1 03 Jul 13:00:50 13:03:36 16° 299° (WNW) 13:06:14 434.975-435.025
SPROUT 03 Jul 13:24:39 13:28:57 71° 286° (WNW) 13:33:12 437.525
UKube-1 03 Jul 13:25:05 13:26:21 11° 303° (WNW) 13:27:25 .
ISS 03 Jul 13:33:11 13:36:23 58° 18° (NNE) 13:39:36 145.825
AISAT 03 Jul 13:33:20 13:35:41 14° 301° (WNW) 13:37:52 437.250
Cosmos 2499 03 Jul 13:46:04 13:49:42 14° 309° (NW) 13:53:00 435.465 / 435.565
CUBEBUG 1 03 Jul 13:55:17 13:57:42 14° 300° (WNW) 13:59:57 437.445
BEESAT 03 Jul 14:00:55 14:05:14 33° 95° (E) 14:09:34 436.000
ESTCUBE 1 03 Jul 14:01:07 14:03:02 12° 302° (WNW) 14:04:47 437.505/2401.250
HORYU 2 03 Jul 14:03:38 14:05:13 12° 58° (ENE) 14:06:58 437.375
AO-7 03 Jul 14:03:47 14:10:42 31° 53° (NE) 14:17:49 29.400- 29.500
PHONESAT 2.4 03 Jul 14:06:20 14:08:31 16° 200° (SSW) 14:10:39 2401.200-2431.200
Gurwin Techsat 1B 03 Jul 14:09:25 14:14:44 82° 74° (ENE) 14:20:06 435.225
TISAT 1 03 Jul 14:11:46 14:15:37 35° 291° (WNW) 14:19:24 437.305
YUBILEINY 03 Jul 14:12:17 14:20:52 57° 73° (ENE) 14:29:31 435.215
Oscar 19 03 Jul 14:15:17 14:19:48 30° 266° (W) 14:24:16 437.125/150
SWISSCUBE 03 Jul 14:16:06 14:20:47 49° 99° (E) 14:25:27 437.505
ITUPSAT 1 03 Jul 14:20:47 14:25:29 49° 99° (E) 14:30:09 437.325
ITAMSAT 1 03 Jul 14:22:56 14:28:10 80° 258° (WSW) 14:33:27 435.822/435.867
BEESAT 3 03 Jul 14:24:18 14:26:48 16° 30° (NNE) 14:29:21 437.485
BEESAT 2 03 Jul 14:34:41 14:37:14 16° 30° (NNE) 14:39:50 435.950
Cosmos 2491 03 Jul 14:37:29 14:45:10 36° 85° (E) 14:53:00 435.465 / 435.565
JAS-2 03 Jul 14:47:58 14:52:54 49° 69° (ENE) 14:58:10 435.910
STARS 03 Jul 14:55:18 14:57:14 13° 87° (E) 14:59:21 437.465
ISS 03 Jul 15:09:45 15:12:40 30° 217° (SW) 15:15:33 145.825
PCSat 03 Jul 15:11:58 15:15:44 20° 108° (ESE) 15:19:40 145.827
AIST 1 03 Jul 15:17:44 15:21:29 29° 90° (E) 15:25:19
Cosmos 2504 03 Jul 15:26:33 15:32:02 22° 59° (ENE) 15:38:03 435.465 / 435.565
KKS-1 03 Jul 15:34:53 15:39:13 51° 100° (E) 15:43:32 437.445
HORYU 2 03 Jul 15:36:47 15:41:13 86° 75° (ENE) 15:45:40 437.375
BEESAT 03 Jul 15:38:45 15:43:05 33° 293° (WNW) 15:47:20 436.000
AIST 2 03 Jul 15:44:57 15:48:01 19° 33° (NNE) 15:51:08 435.215
Gurwin Techsat 1B 03 Jul 15:52:19 15:55:29 15° 274° (W) 15:58:24 435.225
AO-7 03 Jul 15:54:32 16:02:54 77° 254° (WSW) 16:11:19 29.400- 29.500
SWISSCUBE 03 Jul 15:54:32 15:58:22 24° 297° (WNW) 16:02:07 437.505
ITUPSAT 1 03 Jul 15:59:15 16:03:06 24° 297° (WNW) 16:06:52 437.325
BEESAT 3 03 Jul 16:01:22 16:05:28 76° 51° (NE) 16:09:29 437.485
ITAMSAT 1 03 Jul 16:06:52 16:08:39 11° 276° (W) 16:10:07 435.822/435.867
YUBILEINY 03 Jul 16:09:37 16:17:25 37° 275° (W) 16:25:04 435.215
BEESAT 2 03 Jul 16:11:52 16:16:00 77° 51° (NE) 16:20:03 435.950
STARS 03 Jul 16:29:53 16:34:16 72° 287° (WNW) 16:38:37 437.465
Cosmos 2491 03 Jul 16:33:01 16:41:43 58° 286° (WNW) 16:50:24 435.465 / 435.565
JAS-2 03 Jul 16:34:18 16:38:29 24° 270° (W) 16:42:44 435.910
SO-50 03 Jul 16:39:04 16:42:53 25° 114° (ESE) 16:46:52 436.795
O/OREOS (USA 219) 03 Jul 16:43:32 16:47:46 38° 57° (ENE) 16:52:02 437.305
CUTE-I 03 Jul 16:50:57 16:55:02 23° 61° (ENE) 16:59:14 437.470
PCSat 03 Jul 16:53:14 16:58:40 72° 307° (NW) 17:04:07 145.827
AIST 1 03 Jul 16:55:11 16:59:06 30° 289° (WNW) 17:03:00
KKS-1 03 Jul 17:12:15 17:15:32 20° 297° (WNW) 17:18:42 437.445
HORYU 2 03 Jul 17:17:22 17:18:35 11° 274° (W) 17:19:33 437.375
Cosmos 2504 03 Jul 17:18:54 17:26:35 89° 262° (W) 17:34:49 435.465 / 435.565
MOZHAYETS 4 03 Jul 17:20:16 17:24:55 70° 101° (E) 17:29:34
AIST 2 03 Jul 17:22:54 17:27:08 81° 235° (SW) 17:31:18 435.215
Cubesat XI-IV 03 Jul 17:23:41 17:28:39 41° 67° (ENE) 17:33:42 437.490
BEESAT 3 03 Jul 17:40:54 17:42:53 13° 249° (WSW) 17:44:42 437.485
CUBESAT XI-V 03 Jul 17:45:34 17:47:37 13° 85° (E) 17:49:53 437.345
BEESAT 2 03 Jul 17:51:32 17:53:32 13° 249° (WSW) 17:55:21 435.950
AO-7 03 Jul 17:51:58 17:57:18 17° 276° (W) 18:02:11 29.400- 29.500
SO-50 03 Jul 18:18:26 18:23:08 55° 314° (NW) 18:28:00 436.795
GOMX 1 03 Jul 18:20:35 18:21:48 11° 58° (ENE) 18:23:14 467.674
O/OREOS (USA 219) 03 Jul 18:23:14 18:27:04 26° 255° (WSW) 18:30:49 437.305
CUTE-I 03 Jul 18:29:25 18:34:44 61° 259° (W) 18:40:05 437.470
DANDE 03 Jul 18:34:39 18:36:50 18° 65° (ENE) 18:38:51 436.750
Cosmos 2491 03 Jul 18:36:23 18:41:07 15° 313° (NW) 18:45:23 435.465 / 435.565
BRITE-PL 03 Jul 18:36:26 18:40:41 25° 65° (ENE) 18:44:50 437.365/2234.400
PCSat 03 Jul 18:39:14 18:43:05 19° 329° (NNW) 18:46:52 145.827
GONETS M04 03 Jul 18:48:33 18:55:29 26° 59° (ENE) 19:02:39
MOZHAYETS 4 03 Jul 18:58:42 19:01:40 17° 299° (WNW) 19:04:30
Cubesat XI-IV 03 Jul 19:04:04 19:08:52 32° 265° (W) 19:13:39 437.490
DOVE 4 03 Jul 19:07:37 19:10:42 18° 63° (ENE) 19:13:49 437.250
Cosmos 2504 03 Jul 19:13:55 19:19:09 19° 280° (W) 19:24:14 435.465 / 435.565
SEEDS 03 Jul 19:15:15 19:17:12 13° 61° (ENE) 19:19:18 437.485
HO-68 03 Jul 19:18:36 19:25:02 39° 61° (ENE) 19:31:33 435.675
CUSAT 1 03 Jul 19:20:01 19:22:44 52° 262° (W) 19:25:15 437.405
CUBESAT XI-V 03 Jul 19:21:01 19:25:46 80° 285° (WNW) 19:30:25 437.345
AAUSAT CUBESAT 2 03 Jul 19:29:07 19:30:52 13° 60° (ENE) 19:32:48 437.432
Cosmos 2499 03 Jul 19:43:07 19:45:37 12° 49° (NE) 19:48:40 435.465 / 435.565
STRAND 1 03 Jul 19:51:20 19:56:30 69° 102° (ESE) 20:01:38 437.568
COMPASS 1 03 Jul 19:52:33 19:55:52 24° 66° (ENE) 19:59:17 437.405
GOMX 1 03 Jul 19:54:09 19:59:16 70° 74° (ENE) 20:04:04 467.674
CUTE 1.7 + AOD 2 03 Jul 19:58:42 20:02:38 40° 70° (ENE) 20:06:37 437.475
CINEMA 3 03 Jul 20:00:02 20:03:37 25° 67° (ENE) 20:07:09 145.822/145.860
PRISM 03 Jul 20:00:52 20:05:07 87° 108° (ESE) 20:09:18 437.425
SO-50 03 Jul 20:01:38 20:04:47 17° 336° (NNW) 20:07:54 436.795
CANX-2 03 Jul 20:01:46 20:05:49 48° 72° (ENE) 20:09:55 2200.000
UWE-3 03 Jul 20:13:12 20:15:13 14° 61° (ENE) 20:17:23 435.000/436.395/437.385
BRITE-PL 03 Jul 20:13:34 20:18:57 54° 260° (W) 20:24:00 437.365/2234.400
DANDE 03 Jul 20:18:05 20:19:52 15° 271° (W) 20:21:27 436.750
AUBIESAT-1 03 Jul 20:38:04 20:40:25 15° 96° (E) 20:43:00 437.475
DOVE 4 03 Jul 20:43:17 20:48:07 64° 259° (W) 20:52:42 437.250
GONETS M04 03 Jul 20:44:47 20:53:31 81° 264° (W) 21:02:12
SEEDS 03 Jul 20:48:18 20:52:28 75° 258° (WSW) 20:56:41 437.485
DX 1 03 Jul 20:49:17 20:50:37 11° 57° (ENE) 20:52:09 434.975-435.025
CUBEBUG 2 03 Jul 20:54:17 20:58:17 40° 70° (ENE) 21:02:14 437.445
CUBESAT XI-V 03 Jul 21:00:37 21:02:28 12° 303° (WNW) 21:04:06 437.345
ZACube-1 03 Jul 21:01:01 21:04:40 30° 68° (ENE) 21:08:20 437.345
AAUSAT CUBESAT 2 03 Jul 21:01:48 21:05:56 77° 257° (WSW) 21:10:08 437.432
HO-68 03 Jul 21:05:43 21:12:39 51° 260° (W) 21:19:35 435.675
UKube-1 03 Jul 21:10:09 21:12:48 16° 61° (ENE) 21:15:34 .
M-CUBED/EXP-1 PRIME 03 Jul 21:10:18 21:14:07 34° 103° (ESE) 21:18:13 437.505
Oscar 11 03 Jul 21:11:13 21:15:27 63° 73° (ENE) 21:19:44 145.826/435.025
AISAT 03 Jul 21:21:55 21:24:13 14° 59° (ENE) 21:26:39 437.250
DELFI C3 03 Jul 21:23:53 21:27:50 60° 73° (ENE) 21:31:49 145.870
COMPASS 1 03 Jul 21:27:34 21:31:24 35° 264° (W) 21:35:15 437.405
HUMSAT D 03 Jul 21:27:42 21:31:04 26° 67° (ENE) 21:34:30 437.325/437.525
STRAND 1 03 Jul 21:31:33 21:35:15 20° 300° (WNW) 21:38:48 437.568
Cosmos 2499 03 Jul 21:33:25 21:40:56 53° 74° (ENE) 21:49:04 435.465 / 435.565
GOMX 1 03 Jul 21:34:33 21:37:51 17° 271° (W) 21:40:52 467.674
CUTE 1.7 + AOD 2 03 Jul 21:35:28 21:38:44 21° 269° (W) 21:41:56 437.475
CINEMA 3 03 Jul 21:36:28 21:40:42 38° 263° (W) 21:44:45 145.822/145.860
50 SAT 03 Jul 21:36:30 21:38:54 16° 64° (ENE) 21:41:24 437.505
FUNcube-1 03 Jul 21:37:00 21:41:10 68° 74° (ENE) 21:45:18 145.935
PRISM 03 Jul 21:38:14 21:39:57 12° 301° (WNW) 21:41:28 437.425
CANX-2 03 Jul 21:39:06 21:42:04 18° 270° (W) 21:44:55 2200.000
CUBEBUG 1 03 Jul 21:43:13 21:45:01 13° 59° (ENE) 21:47:01 437.445
SO-50 03 Jul 21:46:29 21:47:22 10° 0° (N) 21:48:15 436.795
UWE-3 03 Jul 21:47:03 21:51:17 72° 258° (WSW) 21:55:29 435.000/436.395/437.385
ESTCUBE 1 03 Jul 21:49:59 21:52:52 17° 61° (ENE) 21:55:54 437.505/2401.250
UNISAT 6 03 Jul 22:06:49 22:08:23 12° 87° (E) 22:10:11 437.425
VELOX 1 03 Jul 22:09:24 22:13:28 36° 68° (ENE) 22:17:34 145.980
AUBIESAT-1 03 Jul 22:11:24 22:15:30 66° 292° (WNW) 22:19:54 437.475
PCSat 03 Jul 22:12:37 22:14:52 13° 20° (NNE) 22:17:13 145.827
DX 1 03 Jul 22:21:49 22:26:13 83° 75° (ENE) 22:30:38 434.975-435.025
CUBEBUG 2 03 Jul 22:31:51 22:35:10 21° 268° (W) 22:38:22 437.445
ZACube-1 03 Jul 22:37:23 22:41:02 28° 266° (W) 22:44:38 437.345
GONETS M04 03 Jul 22:43:32 22:49:06 18° 284° (WNW) 22:54:15
UKube-1 03 Jul 22:44:11 22:48:30 64° 258° (WSW) 22:52:51 .
M-CUBED/EXP-1 PRIME 03 Jul 22:45:19 22:48:52 28° 298° (WNW) 22:52:34 437.505
SPROUT 03 Jul 22:47:38 22:50:14 16° 62° (ENE) 22:52:58 437.525
ANTELSAT 03 Jul 22:49:32 22:53:26 32° 96° (E) 22:57:27 437.575/2403.000
Oscar 11 03 Jul 22:49:43 22:52:08 14° 272° (W) 22:54:24 145.826/435.025
AISAT 03 Jul 22:55:45 23:00:15 79° 258° (WSW) 23:04:44 437.250
DELFI C3 03 Jul 23:01:19 23:03:23 13° 272° (W) 23:05:17 145.870
TIGRISAT 03 Jul 23:02:09 23:06:16 40° 98° (E) 23:10:28 435.000
QB50P1 03 Jul 23:02:52 23:05:48 18° 91° (E) 23:08:49 145.935-145.965
HUMSAT D 03 Jul 23:03:01 23:06:43 32° 264° (W) 23:10:24 437.325/437.525
50 SAT 03 Jul 23:09:30 23:13:12 47° 261° (W) 23:16:57 437.505
FUNcube-1 03 Jul 23:16:08 23:18:02 12° 273° (W) 23:19:44 145.935
CUBEBUG 1 03 Jul 23:16:19 23:20:46 89° 255° (WSW) 23:25:14 437.445
NANOSAT C BR1 03 Jul 23:17:02 23:20:31 25° 94° (E) 23:24:03 145.865
DUCHIFAT 1 03 Jul 23:24:09 23:27:49 29° 95° (E) 23:31:30 145.980
ESTCUBE 1 03 Jul 23:24:47 23:29:18 65° 259° (WSW) 23:33:51 437.505/2401.250
SO-50 03 Jul 23:26:42 23:29:55 17° 25° (NNE) 23:33:12 436.795
Cosmos 2499 03 Jul 23:26:58 23:33:56 37° 273° (W) 23:41:14 435.465 / 435.565
POLYITAN 1 03 Jul 23:28:02 23:31:52 33° 96° (E) 23:35:43 437.675
TISAT 1 03 Jul 23:31:23 23:35:01 28° 67° (ENE) 23:38:42 437.305
UNISAT 6 03 Jul 23:41:25 23:45:47 78° 285° (WNW) 23:50:13 437.425
BUGSAT 1 03 Jul 23:44:50 23:48:29 31° 96° (E) 23:52:07 437.445
VELOX 1 03 Jul 23:46:16 23:50:06 27° 266° (W) 23:53:53 145.980
SWISSCUBE 03 Jul 23:51:21 23:53:15 13° 56° (ENE) 23:55:20 437.505
PCSat 03 Jul 23:54:56 23:59:58 36° 45° (NE) 00:04:59 145.827
ITUPSAT 1 03 Jul 23:56:13 23:58:09 13° 56° (ENE) 00:00:18 437.325
QB50P2 03 Jul 23:57:39 00:01:53 70° 102° (ESE) 00:06:05 145.880/145.840
POPSAT HIP 1 03 Jul 23:58:36 00:02:49 69° 102° (ESE) 00:06:59 437.405
DX 1 04 Jul 00:01:40 00:03:09 11° 274° (W) 00:04:23 434.975-435.025
SPROUT 04 Jul 00:21:37 00:25:54 62° 259° (W) 00:30:11 437.525
ANTELSAT 04 Jul 00:26:23 00:30:11 29° 293° (WNW) 00:34:00 437.575/2403.000
QB50P1 04 Jul 00:37:53 00:41:56 46° 289° (WNW) 00:45:57 145.935-145.965
TIGRISAT 04 Jul 00:39:21 00:42:51 23° 295° (WNW) 00:46:17 435.000
Cosmos 2491 04 Jul 00:43:17 00:49:36 22° 55° (NE) 00:56:12 435.465 / 435.565
Oscar 19 04 Jul 00:46:45 00:47:23 10° 83° (E) 00:48:21 437.125/150
NANOSAT C BR1 04 Jul 00:52:36 00:56:25 34° 292° (WNW) 01:00:11 145.865
CUBEBUG 1 04 Jul 00:57:05 00:57:53 10° 275° (W) 00:58:24 437.445
DUCHIFAT 1 04 Jul 00:59:56 01:03:36 29° 293° (WNW) 01:07:13 145.980
POLYITAN 1 04 Jul 01:04:08 01:07:41 26° 294° (WNW) 01:11:09 437.675
SO-50 04 Jul 01:06:37 01:11:32 57° 47° (NE) 01:16:24 436.795
TISAT 1 04 Jul 01:06:57 01:10:44 31° 265° (W) 01:14:30 437.305
BEESAT 04 Jul 01:10:16 01:14:55 53° 71° (ENE) 01:19:36 436.000
RS-15 04 Jul 01:15:24 01:23:40 27° 104° (ESE) 01:32:31 29.354- 29.394
BUGSAT 1 04 Jul 01:20:27 01:23:53 26° 294° (WNW) 01:27:13 437.445
UNISAT 6 04 Jul 01:20:55 01:21:55 11° 302° (WNW) 01:22:43 437.425
AIST 1 04 Jul 01:23:04 01:24:20 11° 61° (ENE) 01:25:49
SWISSCUBE 04 Jul 01:25:36 01:30:22 80° 76° (ENE) 01:35:12 437.505
YUBILEINY 04 Jul 01:28:02 01:30:17 12° 71° (ENE) 01:33:12 435.215
ITUPSAT 1 04 Jul 01:30:32 01:35:19 80° 76° (ENE) 01:40:10 437.325
QB50P2 04 Jul 01:34:57 01:37:18 14° 299° (WNW) 01:39:29 145.880/145.840
POPSAT HIP 1 04 Jul 01:35:52 01:38:12 14° 299° (WNW) 01:40:25 437.405
PCSat 04 Jul 01:38:22 01:43:30 44° 245° (WSW) 01:48:37 145.827
STARS 04 Jul 01:54:56 01:57:56 19° 62° (ENE) 02:01:03 437.465
Oscar 19 04 Jul 02:22:36 02:27:46 76° 104° (ESE) 02:32:53 437.125/150
Gurwin Techsat 1B 04 Jul 02:22:55 02:27:16 26° 92° (E) 02:31:42 435.225
ITAMSAT 1 04 Jul 02:32:58 02:37:27 29° 94° (E) 02:41:59 435.822/435.867
KKS-1 04 Jul 02:35:51 02:40:18 69° 73° (ENE) 02:44:44 437.445
Cosmos 2491 04 Jul 02:39:15 02:48:05 85° 81° (E) 02:56:49 435.465 / 435.565
SO-50 04 Jul 02:47:44 02:51:48 25° 246° (WSW) 02:55:43 436.795
BEESAT 04 Jul 02:49:33 02:53:07 20° 269° (W) 02:56:36 436.000
MOZHAYETS 4 04 Jul 02:50:59 02:53:05 13° 59° (ENE) 02:55:23
AIST 1 04 Jul 02:58:22 03:02:47 87° 262° (W) 03:07:07
SWISSCUBE 04 Jul 03:06:27 03:08:55 13° 273° (W) 03:11:11 437.505
ITUPSAT 1 04 Jul 03:11:28 03:13:55 13° 274° (W) 03:16:10 437.325
YUBILEINY 04 Jul 03:16:57 03:25:21 58° 91° (E) 03:33:50 435.215
RS-15 04 Jul 03:23:45 03:34:43 89° 315° (NW) 03:46:07 29.354- 29.394
HORYU 2 04 Jul 03:26:25 03:28:30 13° 87° (E) 03:30:47 437.375
STARS 04 Jul 03:29:42 03:34:02 55° 260° (W) 03:38:22 437.465
JAS-2 04 Jul 03:36:29 03:42:30 38° 96° (E) 03:49:14 435.910
AO-7 04 Jul 03:52:59 04:00:07 31° 93° (E) 04:07:21 29.400- 29.500
Gurwin Techsat 1B 04 Jul 04:02:24 04:07:33 50° 291° (WNW) 04:12:39 435.225
Oscar 19 04 Jul 04:03:09 04:06:35 18° 301° (WNW) 04:09:52 437.125/150
ITAMSAT 1 04 Jul 04:12:12 04:17:08 43° 293° (WNW) 04:22:01 435.822/435.867
Cosmos 2504 04 Jul 04:13:53 04:16:18 12° 75° (ENE) 04:19:10 435.465 / 435.565
KKS-1 04 Jul 04:15:02 04:17:28 14° 272° (W) 04:19:43 437.445
MOZHAYETS 4 04 Jul 04:25:06 04:29:41 88° 253° (WSW) 04:34:20
Cosmos 2491 04 Jul 04:37:28 04:43:58 23° 281° (W) 04:50:06 435.465 / 435.565
CUBESAT XI-V 04 Jul 04:51:36 04:54:55 20° 62° (ENE) 04:58:21 437.345
HORYU 2 04 Jul 05:01:16 05:05:44 73° 286° (WNW) 05:10:11 437.375
YUBILEINY 04 Jul 05:14:45 05:22:41 37° 294° (WNW) 05:30:32 435.215
PRISM 04 Jul 05:21:20 05:22:57 12° 59° (ENE) 05:24:44 437.425
JAS-2 04 Jul 05:21:35 05:27:41 47° 292° (WNW) 05:34:28 435.910
STRAND 1 04 Jul 05:32:59 05:36:45 22° 61° (ENE) 05:40:40 437.568
RS-15 04 Jul 05:38:26 05:48:43 40° 336° (NNW) 05:59:22 29.354- 29.394
Cubesat XI-IV 04 Jul 05:39:41 05:41:33 12° 84° (E) 05:43:43 437.490
AO-7 04 Jul 05:45:17 05:53:37 69° 294° (WNW) 06:01:53 29.400- 29.500
Cosmos 2504 04 Jul 06:01:17 06:08:25 70° 95° (E) 06:15:36 435.465 / 435.565
MOZHAYETS 4 04 Jul 06:06:41 06:07:45 10° 276° (W) 06:08:31
CUBESAT XI-V 04 Jul 06:27:19 06:31:59 58° 260° (W) 06:36:40 437.345
HORYU 2 04 Jul 06:40:50 06:41:38 10° 304° (NW) 06:42:13 437.375
CUTE-I 04 Jul 06:43:19 06:48:24 42° 97° (E) 06:53:29 437.470
CUSAT 1 04 Jul 06:47:54 06:51:25 17° 92° (E) 06:54:42 437.405
PRISM 04 Jul 06:53:37 06:57:48 85° 256° (WSW) 07:02:02 437.425
O/OREOS (USA 219) 04 Jul 06:59:47 07:03:14 23° 104° (ESE) 07:06:48 437.305
STRAND 1 04 Jul 07:10:28 07:15:34 62° 259° (WSW) 07:20:43 437.568
JAS-2 04 Jul 07:10:30 07:11:37 10° 310° (NW) 07:12:22 435.910
Cubesat XI-IV 04 Jul 07:17:13 07:22:38 81° 103° (ESE) 07:28:02 437.490
AUBIESAT-1 04 Jul 07:28:50 07:31:36 25° 61° (ENE) 07:34:33 437.475
BEESAT 3 04 Jul 07:34:11 07:38:07 49° 122° (ESE) 07:42:07 437.485
AO-7 04 Jul 07:39:18 07:45:07 21° 316° (NW) 07:50:40 29.400- 29.500
